Weather History for Key West, FL

Change the Weather History Date:

Thursday, January 24, 2013

  Actual Average Record
Temperature  
Mean Temperature 70 °F 69 °F  
Max Temperature 74 °F 74 °F 83 °F (1881)
Min Temperature 66 °F 64 °F 45 °F (2003)
Degree Days  
Heating Degree Days 0 1  
Month to date heating degree days 1 24  
Since 1 July heating degree days 5 42  
Cooling Degree Days 5 5  
Month to date cooling degree days 231 122  
Year to date cooling degree days 231 122  
Growing Degree Days 20 (Base 50)    
Moisture  
Dew Point 58 °F    
Average Humidity 68    
Maximum Humidity 78    
Minimum Humidity 57    
Precipitation  
Precipitation 0.00 in 0.07 in 1.77 in (1899)
Month to date precipitation 0.29 1.60  
Year to date precipitation 0.29 1.60  
Snow  
Snow 0.00 in - - ()
Month to date snowfall 0.0  
Since 1 July snowfall 0.0  
Snow Depth 0.00 in    
Sea Level Pressure  
Sea Level Pressure 30.24 in    
Wind  
Wind Speed 9 mph (NE)    
Max Wind Speed 17 mph    
Max Gust Speed 24 mph    
Visibility 10 miles    
Events      
T = Trace of Precipitation, MM = Missing Value Source: NWS Daily Summary

Daily Weather History Graph

Daily Weather History Graph

Search for Another Location

Airport:

Trip Planner

Search our weather history database for the weather conditions in past years. The results will help you decide how hot, cold, wet, or windy it might be!

Date:

Astronomy

Jan. 24, 2013 Rise Set
Actual Time 7:11 AM EST 6:07 PM EST
Civil Twilight 6:47 AM EST 6:31 PM EST
Nautical Twilight 6:19 AM EST 6:58 PM EST
Astronomical Twilight 5:52 AM EST 7:25 PM EST
Moon 4:10 PM EST (1/24) 5:04 AM EST (1/24)
Length of Visible Light 11h 43m
Length of Day
10h 55m
Waxing Gibbous, 94% of the Moon is Illuminated
Jan 24
Waxing Gibbous
Jan 26
Full
Feb 3
Last Quarter
Feb 10
New
Feb 17
First Quarter

Hourly Weather History & Observations

Time (EST) Temp. Dew Point Humidity Pressure Visibility Wind Dir Wind Speed Gust Speed Precip Events Conditions
12:53 AM 66.9 °F 57.9 °F 73% 30.24 in 10.0 mi NE 6.9 mph - N/A   Clear
1:53 AM 66.9 °F 57.0 °F 70% 30.23 in 10.0 mi NE 8.1 mph - N/A   Clear
2:53 AM 66.9 °F 57.0 °F 70% 30.23 in 10.0 mi NNE 8.1 mph - N/A   Clear
3:53 AM 66.9 °F 57.9 °F 73% 30.19 in 10.0 mi NE 11.5 mph - N/A   Clear
4:53 AM 66.9 °F 57.9 °F 73% 30.21 in 10.0 mi NNE 9.2 mph - N/A   Clear
5:53 AM 66.0 °F 59.0 °F 78% 30.22 in 10.0 mi NE 10.4 mph - N/A   Clear
6:53 AM 66.2 °F 57.2 °F 73% 30.23 in 10.0 mi NE 8.1 mph 17.3 mph N/A   Clear
7:53 AM 66.0 °F 57.9 °F 75% 30.25 in 10.0 mi NE 10.4 mph - N/A   Clear
8:53 AM 69.1 °F 59.0 °F 70% 30.27 in 10.0 mi NNE 12.7 mph 19.6 mph N/A   Clear
9:53 AM 69.1 °F 60.1 °F 73% 30.29 in 10.0 mi NNE 15.0 mph 21.9 mph N/A   Clear
10:53 AM 71.1 °F 59.0 °F 66% 30.29 in 10.0 mi NNE 15.0 mph 20.7 mph N/A   Clear
11:53 AM 72.0 °F 59.0 °F 64% 30.27 in 10.0 mi NE 15.0 mph 21.9 mph N/A   Clear
12:53 PM 72.0 °F 60.1 °F 66% 30.25 in 10.0 mi NE 13.8 mph 19.6 mph N/A   Clear
1:53 PM 73.9 °F 59.0 °F 59% 30.22 in 10.0 mi ENE 9.2 mph 17.3 mph N/A   Clear
2:53 PM 73.9 °F 57.9 °F 57% 30.21 in 10.0 mi NE 8.1 mph 16.1 mph N/A   Clear
3:53 PM 73.0 °F 57.9 °F 59% 30.22 in 10.0 mi NE 9.2 mph 17.3 mph N/A   Clear
4:53 PM 73.0 °F 57.9 °F 59% 30.22 in 10.0 mi NE 8.1 mph - N/A   Clear
5:53 PM 71.1 °F 57.9 °F 63% 30.23 in 10.0 mi NNE 8.1 mph - N/A   Clear
6:53 PM 69.1 °F 57.0 °F 65% 30.24 in 10.0 mi NNE 5.8 mph - N/A   Clear
7:53 PM 69.1 °F 57.0 °F 65% 30.24 in 10.0 mi North 9.2 mph - N/A   Clear
8:53 PM 68.0 °F 57.9 °F 70% 30.25 in 10.0 mi North 8.1 mph - N/A   Clear
9:53 PM 68.0 °F 57.9 °F 70% 30.26 in 10.0 mi NNE 6.9 mph - N/A   Partly Cloudy
10:53 PM 66.9 °F 57.0 °F 70% 30.27 in 10.0 mi NNE 4.6 mph - N/A   Clear
11:53 PM 66.9 °F 57.9 °F 73% 30.25 in 10.0 mi NE 4.6 mph - N/A   Clear